QPF
0.05 0.05 0.04 0.04 0.04 0.05 0.07 0.07 0.05 0.03 0.02 0.02 0.03 0.03 0.03 0.02 0.02 0.02 0.02 0.03 0.04 0.06 0.06 0.08 0.06 0.04 0.04 0.05 0.04 0.03 0.03 0.04 0.05 0.04 0.04 0.05 0.05 0.06
0.07 0.06 0.05 0.05 0.04 0.05 0.07 0.06 0.06 0.05 0.03 0.03 0.02 0.03 0.03 0.03 0.03 0.02 0.02 0.03 0.04 0.05 0.06 0.08 0.06 0.04 0.03 0.03 0.03 0.02 0.01 0.02 0.02 0.03 0.03 0.04 0.05 0.06
0.07 0.07 0.06 0.05 0.05 0.06 0.05 0.04 0.04 0.04 0.03 0.03 0.03 0.02 0.02 0.02 0.02 0.02 0.03 0.03 0.05 0.05 0.05 0.04 0.03 0.03 0.02 0.01 0.02 0.02 0.01 0.01 0.02 0.02 0.03 0.03 0.04 0.05
0.06 0.06 0.05 0.05 0.06 0.06 0.05 0.03 0.03 0.03 0.03 0.03 0.02 0.02 0.02 0.01 0.01 0.02 0.02 0.02 0.03 0.05 0.04 0.03 0.02 0.02 0.02 0.01 0.01 0.02 0.02 0.01 0.01 0.01 0.01 0.01 0.02 0.04
0.06 0.06 0.05 0.06 0.05 0.04 0.03 0.03 0.02 0.02 0.02 0.02 0.01 0.01 0.01 0.01 0.01 0.01 0.01 0.01 0.02 0.02 0.02 0.03 0.02 0.01 0.01 0.01 0.01 0.01 0.01 0.01 0.01 0.01 0.01 0.01 0.01 0.01
0.07 0.07 0.06 0.05 0.05 0.06 0.05 0.04 0.04 0.03 0.02 0.02 0.01 0.01 0.01 0.01 0.02 0.02 0.02 0.02 0.01 0.01 0.01 0.01 0.01 0.01 0.01 0.01 0.01 0.01 0.01 0.01 0.01 0.01 0.01 0.01 0.01 0.01
0.09 0.09 0.09 0.08 0.08 0.08 0.08 0.06 0.06 0.04 0.03 0.02 0.02 0.02 0.01 0.01 0.02 0.02 0.02 0.01 0.01 0.01 0.01 0.01 0.01 0.01 0.01 0.00 0.01 0.01 0.01 0.01 0.02 0.02 0.02 0.02 0.02 0.02
0.09 0.10 0.09 0.06 0.05 0.05 0.05 0.06 0.06 0.06 0.04 0.03 0.03 0.02 0.02 0.02 0.02 0.02 0.02 0.01 0.02 0.01 0.01 0.01 0.01 0.01 0.01 0.01 0.01 0.01 0.01 0.01 0.02 0.03 0.03 0.02 0.02 0.02
0.03 0.03 0.03 0.02 0.03 0.02 0.03 0.04 0.05 0.06 0.06 0.05 0.04 0.03 0.02 0.02 0.03 0.02 0.02 0.01 0.02 0.02 0.02 0.01 0.01 0.01 0.02 0.01 0.01 0.01 0.01 0.01 0.01 0.02 0.02 0.01 0.01 0.02
0.02 0.03 0.03 0.02 0.02 0.02 0.02 0.03 0.03 0.04 0.05 0.06 0.07 0.07 0.07 0.06 0.04 0.04 0.03 0.02 0.02 0.02 0.02 0.02 0.01 0.02 0.02 0.02 0.02 0.02 0.01 0.01 0.02 0.03 0.03 0.02 0.01 0.01
0.03 0.04 0.03 0.03 0.03 0.04 0.03 0.03 0.02 0.02 0.04 0.05 0.06 0.07 0.08 0.07 0.07 0.06 0.04 0.03 0.03 0.02 0.03 0.02 0.02 0.03 0.02 0.02 0.02 0.02 0.01 0.01 0.01 0.02 0.03 0.03 0.02 0.02
0.05 0.04 0.04 0.03 0.03 0.04 0.03 0.03 0.02 0.02 0.03 0.03 0.04 0.05 0.05 0.04 0.05 0.05 0.04 0.04 0.03 0.03 0.03 0.03 0.03 0.03 0.03 0.03 0.03 0.04 0.03 0.02 0.01 0.01 0.02 0.03 0.03 0.02
0.05 0.04 0.03 0.04 0.03 0.04 0.04 0.03 0.02 0.02 0.03 0.03 0.03 0.03 0.04 0.03 0.03 0.04 0.05 0.05 0.04 0.02 0.03 0.03 0.03 0.04 0.04 0.05 0.05 0.04 0.04 0.03 0.02 0.01 0.02 0.02 0.03 0.02
0.06 0.06 0.07 0.07 0.06 0.05 0.04 0.03 0.03 0.03 0.03 0.02 0.02 0.02 0.03 0.03 0.03 0.05 0.06 0.06 0.06 0.05 0.05 0.06 0.06 0.08 0.08 0.07 0.05 0.03 0.02 0.03 0.04 0.03 0.02 0.02 0.03 0.02
0.08 0.10 0.11 0.09 0.07 0.05 0.04 0.04 0.04 0.03 0.03 0.02 0.01 0.02 0.04 0.06 0.07 0.07 0.06 0.06 0.06 0.06 0.06 0.06 0.07 0.06 0.05 0.04 0.03 0.02 0.02 0.02 0.04 0.04 0.03 0.03 0.03 0.03
0.10 0.10 0.09 0.09 0.06 0.05 0.04 0.04 0.04 0.03 0.03 0.02 0.02 0.02 0.03 0.05 0.07 0.07 0.07 0.06 0.05 0.04 0.03 0.03 0.03 0.03 0.03 0.04 0.03 0.02 0.02 0.01 0.01 0.02 0.03 0.04 0.04 0.04
0.07 0.08 0.08 0.10 0.08 0.06 0.07 0.07 0.05 0.04 0.04 0.03 0.02 0.02 0.02 0.02 0.03 0.03 0.04 0.06 0.07 0.06 0.05 0.05 0.06 0.05 0.05 0.04 0.04 0.03 0.02 0.01 0.01 0.01 0.02 0.02 0.02 0.02
0.05 0.05 0.06 0.06 0.07 0.05 0.05 0.06 0.05 0.04 0.04 0.03 0.03 0.02 0.01 0.01 0.01 0.01 0.02 0.02 0.04 0.05 0.06 0.07 0.10 0.09 0.07 0.06 0.05 0.05 0.04 0.03 0.02 0.03 0.03 0.03 0.02 0.02
0.03 0.03 0.03 0.04 0.04 0.03 0.03 0.03 0.03 0.04 0.04 0.04 0.03 0.02 0.02 0.01 0.01 0.01 0.02 0.02 0.02 0.02 0.03 0.03 0.05 0.07 0.05 0.04 0.04 0.04 0.04 0.03 0.03 0.04 0.04 0.04 0.04 0.03
0.04 0.04 0.04 0.04 0.03 0.03 0.03 0.03 0.02 0.03 0.04 0.04 0.04 0.04 0.03 0.03 0.03 0.02 0.02 0.03 0.03 0.04 0.03 0.04 0.05 0.05 0.05 0.05 0.05 0.04 0.05 0.05 0.05 0.05 0.06 0.06 0.06 0.06
0.04 0.04 0.05 0.05 0.04 0.03 0.03 0.03 0.03 0.05 0.05 0.05 0.05 0.05 0.04 0.04 0.04 0.04 0.04 0.04 0.04 0.04 0.04 0.05 0.05 0.05 0.04 0.04 0.03 0.03 0.03 0.04 0.03 0.04 0.05 0.06 0.07 0.06
0.04 0.04 0.05 0.06 0.06 0.04 0.03 0.03 0.03 0.05 0.06 0.05 0.04 0.04 0.03 0.03 0.03 0.04 0.04 0.04 0.04 0.04 0.05 0.05 0.04 0.04 0.04 0.03 0.02 0.02 0.02 0.02 0.03 0.03 0.03 0.04 0.04 0.04
0.05 0.05 0.05 0.07 0.07 0.06 0.04 0.04 0.03 0.03 0.03 0.03 0.03 0.03 0.03 0.04 0.04 0.03 0.04 0.04 0.04 0.04 0.04 0.03 0.03 0.02 0.03 0.03 0.02 0.02 0.02 0.02 0.02 0.03 0.03 0.03 0.03 0.03
MSLP
1013.80 1014.02 1014.26 1014.49 1014.67 1014.76 1014.76 1014.66 1014.47 1014.21 1013.92 1013.63 1013.36 1013.12 1012.91 1012.75 1012.61 1012.50 1012.40 1012.32 1012.25 1012.20 1012.17 1012.15 1012.15 1012.16 1012.18 1012.20 1012.23 1012.27 1012.34 1012.44 1012.58 1012.76 1012.97 1013.21 1013.45 1013.67
1012.83 1012.99 1013.19 1013.38 1013.56 1013.67 1013.72 1013.68 1013.58 1013.42 1013.24 1013.04 1012.85 1012.68 1012.52 1012.38 1012.24 1012.11 1011.97 1011.84 1011.71 1011.60 1011.51 1011.44 1011.40 1011.38 1011.37 1011.37 1011.39 1011.44 1011.50 1011.61 1011.75 1011.93 1012.14 1012.37 1012.61 1012.83
1011.96 1012.05 1012.17 1012.32 1012.46 1012.57 1012.63 1012.64 1012.60 1012.53 1012.44 1012.34 1012.24 1012.15 1012.05 1011.94 1011.82 1011.67 1011.51 1011.34 1011.16 1010.99 1010.84 1010.72 1010.63 1010.56 1010.53 1010.51 1010.53 1010.57 1010.64 1010.74 1010.89 1011.07 1011.28 1011.51 1011.73 1011.94
1011.31 1011.31 1011.35 1011.42 1011.50 1011.56 1011.60 1011.61 1011.61 1011.59 1011.56 1011.53 1011.51 1011.48 1011.44 1011.37 1011.28 1011.14 1010.97 1010.77 1010.56 1010.34 1010.15 1009.98 1009.84 1009.74 1009.67 1009.64 1009.64 1009.67 1009.74 1009.84 1009.99 1010.17 1010.37 1010.59 1010.81 1011.01
1010.92 1010.83 1010.78 1010.75 1010.74 1010.73 1010.71 1010.68 1010.65 1010.63 1010.62 1010.63 1010.65 1010.66 1010.67 1010.65 1010.58 1010.47 1010.31 1010.12 1009.89 1009.66 1009.44 1009.24 1009.07 1008.93 1008.83 1008.77 1008.74 1008.76 1008.81 1008.90 1009.04 1009.21 1009.42 1009.63 1009.85 1010.05
1010.79 1010.61 1010.47 1010.35 1010.23 1010.11 1009.99 1009.88 1009.78 1009.71 1009.67 1009.66 1009.68 1009.71 1009.74 1009.76 1009.73 1009.66 1009.54 1009.37 1009.17 1008.95 1008.73 1008.52 1008.33 1008.17 1008.03 1007.94 1007.88 1007.85 1007.87 1007.94 1008.06 1008.21 1008.41 1008.62 1008.84 1009.05
1010.85 1010.61 1010.38 1010.16 1009.93 1009.70 1009.46 1009.24 1009.03 1008.86 1008.74 1008.67 1008.65 1008.67 1008.70 1008.74 1008.75 1008.73 1008.66 1008.55 1008.40 1008.22 1008.02 1007.83 1007.64 1007.46 1007.30 1007.16 1007.05 1006.98 1006.96 1006.98 1007.05 1007.18 1007.36 1007.57 1007.80 1008.02
1011.03 1010.73 1010.43 1010.12 1009.80 1009.45 1009.09 1008.74 1008.41 1008.12 1007.89 1007.73 1007.63 1007.60 1007.62 1007.65 1007.69 1007.72 1007.71 1007.66 1007.58 1007.46 1007.32 1007.16 1006.98 1006.80 1006.62 1006.44 1006.29 1006.16 1006.07 1006.03 1006.06 1006.14 1006.29 1006.49 1006.72 1006.97
1011.24 1010.90 1010.55 1010.18 1009.77 1009.33 1008.87 1008.40 1007.95 1007.53 1007.18 1006.91 1006.72 1006.62 1006.58 1006.59 1006.63 1006.68 1006.72 1006.74 1006.72 1006.68 1006.60 1006.48 1006.34 1006.16 1005.97 1005.77 1005.56 1005.37 1005.22 1005.11 1005.07 1005.11 1005.22 1005.40 1005.63 1005.90
1011.45 1011.07 1010.69 1010.28 1009.83 1009.33 1008.79 1008.23 1007.67 1007.15 1006.68 1006.29 1005.99 1005.79 1005.68 1005.63 1005.64 1005.68 1005.74 1005.79 1005.82 1005.84 1005.81 1005.75 1005.64 1005.50 1005.31 1005.09 1004.85 1004.61 1004.40 1004.23 1004.13 1004.11 1004.17 1004.33 1004.55 1004.82
1011.65 1011.25 1010.85 1010.42 1009.95 1009.42 1008.84 1008.23 1007.60 1006.99 1006.43 1005.93 1005.53 1005.21 1004.99 1004.85 1004.78 1004.77 1004.79 1004.83 1004.88 1004.92 1004.93 1004.91 1004.85 1004.74 1004.57 1004.36 1004.11 1003.85 1003.60 1003.38 1003.22 1003.15 1003.17 1003.29 1003.50 1003.77
1011.89 1011.48 1011.07 1010.65 1010.17 1009.64 1009.05 1008.42 1007.76 1007.10 1006.46 1005.87 1005.35 1004.91 1004.56 1004.29 1004.09 1003.97 1003.91 1003.89 1003.90 1003.93 1003.95 1003.96 1003.93 1003.86 1003.74 1003.55 1003.33 1003.07 1002.80 1002.56 1002.37 1002.26 1002.24 1002.32 1002.50 1002.75
1012.22 1011.81 1011.40 1010.98 1010.52 1010.00 1009.43 1008.81 1008.14 1007.45 1006.77 1006.10 1005.48 1004.91 1004.40 1003.97 1003.62 1003.34 1003.13 1002.99 1002.92 1002.89 1002.89 1002.90 1002.90 1002.88 1002.80 1002.68 1002.49 1002.27 1002.03 1001.79 1001.59 1001.45 1001.39 1001.44 1001.58 1001.80
1012.71 1012.28 1011.87 1011.45 1011.01 1010.52 1009.97 1009.37 1008.72 1008.03 1007.31 1006.59 1005.87 1005.17 1004.52 1003.91 1003.36 1002.89 1002.50 1002.20 1002.00 1001.87 1001.82 1001.81 1001.83 1001.84 1001.83 1001.77 1001.66 1001.50 1001.30 1001.09 1000.90 1000.75 1000.66 1000.67 1000.77 1000.94
1013.33 1012.90 1012.49 1012.07 1011.64 1011.16 1010.65 1010.08 1009.45 1008.77 1008.04 1007.28 1006.48 1005.68 1004.87 1004.09 1003.35 1002.67 1002.09 1001.60 1001.24 1000.99 1000.85 1000.80 1000.82 1000.86 1000.91 1000.92 1000.89 1000.81 1000.68 1000.51 1000.34 1000.19 1000.09 1000.06 1000.11 1000.23
1014.07 1013.63 1013.21 1012.79 1012.35 1011.89 1011.40 1010.85 1010.25 1009.60 1008.87 1008.09 1007.25 1006.36 1005.43 1004.50 1003.58 1002.72 1001.94 1001.27 1000.75 1000.37 1000.13 1000.02 1000.02 1000.09 1000.18 1000.26 1000.31 1000.30 1000.24 1000.12 999.98 999.84 999.72 999.65 999.64 999.70
1014.83 1014.40 1013.97 1013.54 1013.10 1012.64 1012.16 1011.64 1011.06 1010.43 1009.73 1008.95 1008.09 1007.15 1006.15 1005.12 1004.07 1003.06 1002.13 1001.30 1000.63 1000.13 999.80 999.63 999.59 999.66 999.78 999.91 1000.02 1000.08 1000.07 1000.00 999.88 999.74 999.59 999.48 999.42 999.42
1015.52 1015.11 1014.68 1014.24 1013.80 1013.34 1012.86 1012.36 1011.81 1011.22 1010.55 1009.80 1008.96 1008.02 1007.00 1005.91 1004.80 1003.71 1002.67 1001.74 1000.97 1000.37 999.96 999.73 999.65 999.70 999.83 999.99 1000.13 1000.22 1000.25 1000.20 1000.09 999.95 999.78 999.63 999.51 999.45
1016.06 1015.68 1015.27 1014.84 1014.39 1013.94 1013.46 1012.98 1012.46 1011.90 1011.28 1010.59 1009.79 1008.90 1007.91 1006.84 1005.73 1004.62 1003.55 1002.58 1001.75 1001.09 1000.63 1000.35 1000.24 1000.26 1000.37 1000.52 1000.66 1000.77 1000.80 1000.76 1000.65 1000.49 1000.30 1000.10 999.94 999.81
1016.41 1016.08 1015.71 1015.30 1014.86 1014.40 1013.94 1013.47 1012.99 1012.47 1011.91 1011.28 1010.56 1009.74 1008.83 1007.84 1006.79 1005.73 1004.70 1003.74 1002.91 1002.25 1001.76 1001.45 1001.30 1001.29 1001.36 1001.49 1001.61 1001.69 1001.71 1001.66 1001.54 1001.35 1001.14 1000.91 1000.70 1000.53
1016.53 1016.28 1015.96 1015.59 1015.18 1014.74 1014.30 1013.84 1013.39 1012.92 1012.41 1011.86 1011.23 1010.51 1009.71 1008.84 1007.90 1006.94 1006.00 1005.12 1004.34 1003.71 1003.23 1002.91 1002.73 1002.68 1002.72 1002.80 1002.88 1002.93 1002.92 1002.84 1002.70 1002.49 1002.26 1002.01 1001.78 1001.58
1016.46 1016.30 1016.05 1015.74 1015.37 1014.96 1014.54 1014.11 1013.68 1013.25 1012.80 1012.31 1011.78 1011.18 1010.50 1009.76 1008.97 1008.15 1007.33 1006.57 1005.88 1005.31 1004.86 1004.55 1004.37 1004.29 1004.28 1004.31 1004.35 1004.35 1004.30 1004.20 1004.04 1003.83 1003.59 1003.34 1003.10 1002.89
1016.21 1016.15 1016.00 1015.75 1015.44 1015.07 1014.68 1014.28 1013.88 1013.48 1013.08 1012.65 1012.20 1011.70 1011.15 1010.55 1009.91 1009.24 1008.57 1007.94 1007.37 1006.88 1006.49 1006.21 1006.03 1005.93 1005.89 1005.87 1005.86 1005.83 1005.75 1005.62 1005.45 1005.25 1005.02 1004.78 1004.56 1004.37
Thickness
5735 5733 5732 5731 5730 5728 5725 5722 5717 5713 5714 5717 5719 5721 5720 5719 5719 5718 5717 5716 5715 5714 5713 5712 5711 5709 5707 5706 5704 5703 5701 5700 5699 5698 5697 5696 5695 5695
5733 5731 5730 5729 5727 5726 5723 5721 5719 5715 5711 5714 5715 5716 5716 5715 5714 5713 5712 5712 5711 5710 5709 5708 5707 5705 5703 5702 5700 5699 5697 5696 5695 5694 5693 5692 5692 5691
5730 5728 5727 5727 5725 5723 5720 5719 5716 5714 5710 5711 5711 5711 5711 5710 5709 5709 5708 5707 5706 5705 5704 5703 5702 5701 5699 5698 5696 5695 5694 5693 5692 5690 5689 5688 5687 5687
5726 5725 5724 5723 5721 5719 5717 5715 5713 5712 5709 5706 5706 5706 5705 5705 5704 5703 5703 5702 5701 5701 5699 5698 5697 5696 5694 5694 5693 5691 5690 5689 5688 5687 5685 5684 5683 5682
5723 5722 5721 5719 5717 5716 5714 5712 5711 5709 5707 5704 5702 5701 5700 5699 5698 5697 5697 5696 5696 5695 5694 5693 5692 5691 5690 5689 5688 5687 5686 5685 5684 5682 5681 5679 5678 5677
5720 5719 5718 5716 5714 5712 5710 5708 5707 5704 5702 5700 5697 5696 5694 5693 5692 5691 5689 5689 5689 5689 5688 5688 5687 5686 5685 5684 5683 5682 5681 5680 5679 5678 5676 5674 5673 5671
5715 5715 5714 5713 5712 5710 5708 5705 5703 5700 5697 5694 5692 5690 5688 5686 5686 5686 5684 5683 5682 5682 5682 5681 5681 5680 5679 5678 5678 5677 5676 5675 5674 5672 5670 5668 5667 5665
5710 5710 5710 5709 5708 5706 5705 5703 5700 5697 5693 5690 5688 5686 5685 5683 5682 5681 5678 5677 5675 5676 5675 5674 5674 5673 5673 5673 5673 5672 5670 5668 5668 5666 5665 5663 5661 5659
5705 5704 5704 5704 5702 5700 5699 5697 5695 5694 5692 5689 5685 5683 5681 5680 5677 5675 5673 5672 5671 5670 5668 5668 5667 5666 5666 5666 5665 5664 5663 5662 5660 5659 5658 5657 5655 5653
5700 5699 5697 5696 5696 5694 5692 5691 5689 5688 5686 5685 5683 5681 5679 5676 5674 5672 5669 5666 5664 5662 5662 5661 5661 5660 5660 5659 5659 5657 5656 5655 5654 5653 5651 5650 5649 5647
5693 5692 5691 5690 5689 5687 5686 5684 5682 5681 5680 5679 5677 5675 5673 5670 5668 5665 5661 5659 5657 5655 5654 5654 5654 5652 5652 5652 5652 5650 5649 5648 5648 5646 5644 5643 5642 5640
5685 5685 5684 5683 5682 5681 5679 5677 5674 5673 5672 5671 5668 5666 5665 5663 5661 5659 5657 5653 5651 5649 5649 5646 5646 5644 5644 5646 5644 5643 5641 5640 5640 5639 5637 5636 5634 5632
5678 5677 5677 5676 5674 5673 5671 5670 5668 5666 5664 5661 5660 5658 5657 5655 5653 5652 5650 5648 5646 5644 5643 5640 5638 5636 5636 5637 5636 5635 5634 5633 5631 5631 5630 5629 5627 5626
5671 5670 5669 5668 5666 5664 5663 5661 5660 5658 5655 5653 5651 5650 5648 5647 5646 5644 5643 5642 5641 5640 5637 5634 5632 5630 5628 5627 5628 5628 5626 5625 5624 5623 5622 5621 5620 5619
5664 5663 5661 5659 5658 5655 5653 5652 5650 5648 5646 5644 5643 5641 5640 5638 5637 5636 5634 5633 5632 5632 5630 5628 5626 5624 5622 5621 5621 5620 5619 5618 5616 5616 5615 5614 5613 5612
5656 5654 5652 5650 5648 5646 5644 5642 5641 5639 5637 5635 5633 5632 5630 5629 5628 5627 5625 5624 5623 5623 5622 5620 5619 5617 5616 5615 5614 5613 5612 5611 5610 5609 5609 5608 5607 5606
5647 5645 5644 5642 5639 5637 5635 5633 5631 5629 5627 5625 5624 5622 5621 5620 5619 5618 5616 5616 5615 5615 5615 5613 5612 5611 5610 5609 5608 5607 5606 5605 5604 5603 5603 5602 5602 5600
5638 5636 5634 5632 5630 5628 5626 5623 5622 5620 5618 5616 5615 5613 5613 5611 5610 5608 5608 5608 5607 5607 5607 5605 5605 5604 5603 5601 5600 5600 5600 5600 5598 5597 5597 5597 5597 5595
5630 5628 5625 5623 5621 5619 5617 5615 5613 5611 5609 5608 5606 5604 5603 5602 5601 5600 5599 5598 5599 5599 5598 5597 5596 5597 5597 5596 5595 5593 5593 5593 5592 5591 5590 5589 5590 5590
5621 5619 5616 5614 5612 5609 5608 5606 5604 5602 5601 5599 5597 5595 5594 5592 5592 5591 5590 5589 5589 5590 5589 5589 5588 5588 5588 5587 5587 5587 5586 5586 5586 5585 5584 5583 5582 5581
5613 5610 5608 5605 5603 5601 5599 5597 5596 5594 5592 5590 5588 5586 5585 5584 5583 5582 5581 5579 5579 5580 5581 5581 5580 5579 5579 5578 5579 5580 5579 5578 5578 5577 5577 5576 5576 5576
5605 5602 5600 5598 5596 5594 5591 5589 5587 5585 5583 5581 5579 5578 5576 5575 5575 5574 5572 5571 5571 5571 5571 5572 5572 5572 5572 5572 5573 5573 5572 5571 5570 5570 5570 5570 5570 5570
5597 5595 5593 5591 5589 5586 5584 5581 5579 5576 5574 5572 5571 5569 5568 5567 5566 5565 5564 5563 5562 5562 5563 5563 5563 5563 5564 5564 5565 5565 5565 5564 5564 5564 5564 5563 5563 5563